Погода в Комсомольске-на-Амуре

Россия / Хабаровский край     50°32′59″N   137°00′28″E
темп.,
°C
ветер,
м/с
пор.,
м/с
влажн.,
%
обл.,
%
осадки,
мм/ч
давл.,
гПа
погр.,
м
10 апреля, сб
сб1001:000ю24763 0.0 102266
04:00−1ю25791 0.0 1022100
07:00−2ююв25795 0.0 1022192
10:00+3ю46585 0.0 1023564
13:00+8ю56455 0.0 1021938
16:00+11ююз46305 0.0 10191204
19:00+9ююз22395 0.0 101919
22:00+5ю23555 0.0 102040
11 апреля, вс
вс1101:00+4ю476083 0.0 1019140
04:00+4ю5146094 0.0 1019390
07:00+4ю71659100 0.0 1018542
10:00+5ююз71671100 0.0 1018808
13:00+10ююз8105253 0.0 10171283
16:00+12ююз7947100 0.0 10151495
19:00+9ю5964100 0.2 1016462
22:00+7всв1166100 0.7 101937
12 апреля, пн
пн1201:00+4св2262100 0.0 101827
04:00+3с2263100 0.0 101825
07:00+2с246098 0.0 101799
10:00+5с2339100 0.0 1016604
13:00+6ссв3239100 0.1 1015880
16:00+4с3456100 0.4 10141056
19:00+1с5894100 0.8 1014524
22:00−1ссв51095100 2.1 1012605
13 апреля, вт
вт1301:00−3ссв61194100 4.3 1010785
04:00−4с71394100 8.4 1009921
07:00−5с81393100 1.8 1008904
10:00−4с81184100 2.3 10091082
13:00−2с6878100 0.2 10081186
16:00−1с577497 0.4 10081198
19:00−2с598876 0.3 1008625
22:00−4с4109498 1.1 1008678
14 апреля, ср
ср1401:00−5с61090100 0.2 1008496
04:00−6с5118840 0.3 1008507
07:00−6ссз4986100 0.0 1009737
10:00−3ссз5666100 0.1 10101357
13:00−1с456099 0.1 10101431
16:00−1зюз1267100 0.4 1010995
19:00−2ююв248682 0.3 1011264
22:00−5в1194100 0.3 101316